SHIYAN-31

Last updated on Mon Oct 20 2025 00:02:08 GMT+0000 (Coordinated Universal Time)

1 65945U 25227A 25292.18747393 .00011238 00000+0 51843-3 0 9997 2 65945 80.0021 94.2881 0011303 249.3806 110.6209 15.20097710 881
UTC large
Height (km)
Speed (km/s)
/
Latitude / Longitude
Inclination (degrees)
Orbital Period (minutes)
Azimuth
Elevation
Range (km)
Doppler Factor

Next 0 passes for location: London (51.5072 / 0.1276)

Sorry there are no passes over London.